 ,,�O�C���x [��],����1,�O�C���x [��],����2,���ԉ��x [��],����3,���Ԏ��x [��],����4,�Q�����x [��],����5,�Q�����x [��],����6,�Q�X�g���[��(��󒲎�)���x [��],����7,���� [��],����8
2003/6/1,0:00,16.2,0,100,0,23.4,0,61.8,0,23.1,0,59,0,23.2,0,18.1,0
2003/6/1,0:15,16.2,0,100,0,23.3,0,61.8,0,23.1,0,58.7,0,23.2,0,18.2,0
2003/6/1,0:30,16.2,0,100,0,23.3,0,61.5,0,23.1,0,58.9,0,23.1,0,18.3,0
2003/6/1,0:45,16.2,0,100,0,23.3,0,61.9,0,23.1,0,58.8,0,23.1,0,18.3,0
2003/6/1,1:00,16.2,0,100,0,23.2,0,61.9,0,23,0,58.7,0,23.1,0,18.4,0
2003/6/1,1:15,16.3,0,100,0,23.2,0,61.8,0,23,0,58.7,0,23,0,17.2,0
2003/6/1,1:30,16.2,0,100,0,23.2,0,63.4,0,23,0,59.5,0,23,0,17.3,0
2003/6/1,1:45,16.3,0,100,0,23.1,0,63.6,0,23,0,59.6,0,23,0,17.3,0
2003/6/1,2:00,16.3,0,100,0,23.1,0,63.4,0,23,0,59.2,0,23,0,17.4,0
2003/6/1,2:15,16.3,0,100,0,23.1,0,63.2,0,23,0,59.4,0,23,0,17.5,0
2003/6/1,2:30,16.4,0,100,0,23.1,0,63.4,0,22.9,0,59.3,0,22.9,0,17.6,0
2003/6/1,2:45,16.4,0,100,0,23,0,63.3,0,22.9,0,59.2,0,22.9,0,17.6,0
2003/6/1,3:00,16.4,0,100,0,23,0,63.4,0,22.9,0,59.1,0,22.9,0,17.7,0
2003/6/1,3:15,16.4,0,100,0,23,0,63,0,22.9,0,59.1,0,22.9,0,17.8,0
2003/6/1,3:30,16.5,0,100,0,22.9,0,62.8,0,22.9,0,59,0,22.9,0,17.9,0
2003/6/1,3:45,16.4,0,100,0,22.9,0,62.8,0,22.9,0,59.1,0,22.9,0,18,0
2003/6/1,4:00,16.5,0,100,0,22.9,0,62.7,0,22.8,0,59,0,22.8,0,18,0
2003/6/1,4:15,16.5,0,100,0,22.8,0,62.8,0,22.8,0,59,0,22.8,0,18.1,0
2003/6/1,4:30,16.6,0,100,0,22.8,0,62.8,0,22.8,0,58.9,0,22.8,0,18.2,0
2003/6/1,4:45,16.6,0,100,0,22.9,0,62.9,0,22.8,0,58.7,0,22.8,0,18.3,0
2003/6/1,5:00,16.9,0,100,0,22.9,0,62.4,0,22.8,0,58.9,0,22.7,0,18.3,0
2003/6/1,5:15,17,0,100,0,22.9,0,62.8,0,22.8,0,59,0,22.7,0,18.4,0
2003/6/1,5:30,16.9,0,100,0,22.8,0,62.7,0,22.8,0,59.1,0,22.7,0,18.5,0
2003/6/1,5:45,17,0,100,0,22.8,0,62.9,0,22.8,0,59.5,0,22.7,0,18.6,0
2003/6/1,6:00,17.1,0,100,0,22.8,0,62.9,0,22.7,0,59.2,0,22.7,0,18.6,0
2003/6/1,6:15,17.2,0,100,0,22.8,0,62.9,0,22.7,0,58.9,0,22.7,0,18.7,0
2003/6/1,6:30,17.2,0,100,0,22.8,0,62.8,0,22.7,0,59.6,0,22.7,0,18.8,0
2003/6/1,6:45,17.3,0,100,0,22.9,0,62.7,0,22.7,0,60,0,22.7,0,18.8,0
2003/6/1,7:00,17.3,0,100,0,22.9,0,62.7,0,22.8,0,60,0,22.7,0,18.9,0
2003/6/1,7:15,17.4,0,100,0,22.9,0,62.7,0,22.8,0,60.5,0,22.7,0,19,0
2003/6/1,7:30,17.4,0,100,0,22.9,0,62.9,0,22.8,0,60.6,0,22.7,0,19,0
2003/6/1,7:45,17.6,0,100,0,23,0,62.9,0,22.8,0,60.5,0,22.7,0,19.1,0
2003/6/1,8:00,17.8,0,100,0,23,0,62.7,0,22.8,0,60.3,0,22.7,0,19.2,0
2003/6/1,8:15,17.9,0,100,0,23,0,62.3,0,22.8,0,60.5,0,22.8,0,19.2,0
2003/6/1,8:30,18.1,0,100,0,23,0,62.3,0,22.8,0,60.7,0,22.8,0,19.3,0
2003/6/1,8:45,18.4,0,100,0,23.1,0,62.4,0,22.9,0,60.7,0,22.9,0,19.3,0
2003/6/1,9:00,18.6,0,100,0,23.1,0,62.4,0,22.9,0,60.8,0,22.9,0,19.4,0
2003/6/1,9:15,18.8,0,100,0,23.1,0,62.1,0,22.9,0,60.8,0,22.9,0,19.4,0
2003/6/1,9:30,18.8,0,100,0,23.1,0,62.6,0,22.9,0,61.2,0,22.9,0,19.5,0
2003/6/1,9:45,18.9,0,100,0,23.1,0,62.7,0,22.9,0,60.9,0,23,0,19.6,0
2003/6/1,10:00,19,0,100,0,23.1,0,62.9,0,23,0,60.3,0,23,0,19.6,0
2003/6/1,10:15,19,0,100,0,23.1,0,62.6,0,23,0,60.4,0,23,0,19.7,0
2003/6/1,10:30,19.1,0,99.7,0,23.2,0,65.2,0,23,0,60.8,0,23,0,16.8,0
2003/6/1,10:45,19.1,0,100,0,23.3,0,65.6,0,23,0,60.9,0,23.1,0,16.9,0
2003/6/1,11:00,19.2,0,100,0,23.3,0,65.1,0,23,0,60.9,0,23.1,0,17,0
2003/6/1,11:15,19.6,0,100,0,23.3,0,64.8,0,23,0,61,0,23.2,0,17.2,0
2003/6/1,11:30,19.7,0,99.6,0,23.4,0,64.4,0,23.1,0,60.7,0,23.2,0,17.3,0
2003/6/1,11:45,20,0,98.8,0,23.4,0,64.1,0,23.1,0,60.9,0,23.3,0,17.5,0
2003/6/1,12:00,20.3,0,98.9,0,23.5,0,64.4,0,23.1,0,62,0,23.3,0,17.6,0
2003/6/1,12:15,20.7,0,97.9,0,23.5,0,65,0,23.2,0,62.4,0,23.4,0,17.7,0
2003/6/1,12:30,21.1,0,97.9,0,23.6,0,65.6,0,23.2,0,63.1,0,23.5,0,17.9,0
2003/6/1,12:45,21.3,0,96.7,0,23.7,0,65.6,0,23.3,0,63.3,0,23.6,0,18,0
2003/6/1,13:00,21.6,0,94.8,0,23.6,0,65.6,0,23.3,0,62.8,0,23.6,0,18.2,0
2003/6/1,13:15,21.5,0,95.8,0,23.7,0,65.6,0,23.4,0,62.8,0,23.7,0,18.3,0
2003/6/1,13:30,21,0,96.4,0,23.7,0,65.3,0,23.5,0,62.8,0,23.8,0,18.5,0
2003/6/1,13:45,21,0,97.1,0,23.8,0,65.3,0,23.5,0,62.5,0,23.8,0,18.6,0
2003/6/1,14:00,21.2,0,98,0,23.8,0,65.6,0,23.5,0,63.2,0,23.9,0,18.7,0
2003/6/1,14:15,21.4,0,96,0,23.8,0,65.5,0,23.5,0,62.9,0,23.9,0,18.9,0
2003/6/1,14:30,21.5,0,96.8,0,23.9,0,65.1,0,23.6,0,63.1,0,24,0,19,0
2003/6/1,14:45,21.3,0,98.2,0,23.9,0,65.4,0,23.6,0,63.3,0,24,0,19.1,0
2003/6/1,15:00,21.3,0,98,0,23.9,0,65.4,0,23.6,0,63.5,0,24,0,17.3,0
2003/6/1,15:15,20.9,0,95.9,0,24,0,66.3,0,23.6,0,63.5,0,24,0,17.4,0
2003/6/1,15:30,20.9,0,96.1,0,24,0,67.3,0,23.6,0,64.2,0,24,0,17.5,0
2003/6/1,15:45,20.6,0,94.6,0,24,0,68.5,0,23.7,0,64.3,0,23.9,0,16.8,0
2003/6/1,16:00,19.9,0,90.7,0,24,0,68.4,0,23.7,0,63.6,0,23.9,0,17.1,0
2003/6/1,16:15,19.3,0,89.7,0,24,0,68,0,23.7,0,63.2,0,23.9,0,17.2,0
2003/6/1,16:30,19.1,0,87.3,0,24,0,68,0,23.7,0,62.8,0,23.8,0,17.3,0
2003/6/1,16:45,19,0,91.2,0,24,0,68,0,23.6,0,63.3,0,23.8,0,17.4,0
2003/6/1,17:00,18.6,0,90.1,0,24,0,68,0,23.6,0,63,0,23.7,0,16.8,0
2003/6/1,17:15,18.4,0,88,0,24,0,67.6,0,23.6,0,62.9,0,23.7,0,16.9,0
2003/6/1,17:30,18,0,87.3,0,24,0,67.9,0,23.6,0,63,0,23.7,0,17,0
2003/6/1,17:45,18.2,0,81.6,0,24,0,67.6,0,23.6,0,62.9,0,23.6,0,17.2,0
2003/6/1,18:00,18.1,0,82.7,0,24,0,67.4,0,23.6,0,63,0,23.6,0,17.3,0
2003/6/1,18:15,18.2,0,80.5,0,24,0,67.2,0,23.6,0,63,0,23.5,0,17.5,0
2003/6/1,18:30,17.9,0,80.9,0,24,0,66.9,0,23.5,0,63.1,0,23.5,0,17.6,0
2003/6/1,18:45,18.1,0,79.5,0,24,0,67.2,0,23.5,0,63.1,0,23.5,0,17.1,0
2003/6/1,19:00,18,0,79.4,0,23.9,0,66.8,0,23.5,0,63,0,23.4,0,17.2,0
2003/6/1,19:15,18.3,0,79.7,0,23.9,0,68.8,0,23.5,0,63.3,0,23.4,0,17.3,0
2003/6/1,19:30,17.9,0,80.5,0,23.9,0,68.8,0,23.5,0,63.9,0,23.4,0,17.4,0
2003/6/1,19:45,17.9,0,75.6,0,23.9,0,68,0,23.5,0,63.6,0,23.4,0,17.6,0
2003/6/1,20:00,17.9,0,71.8,0,23.8,0,64.8,0,23.4,0,63,0,23.4,0,17.7,0
2003/6/1,20:15,17.8,0,69.6,0,23.9,0,66,0,23.4,0,62.6,0,23.4,0,17.8,0
2003/6/1,20:30,18,0,67.2,0,23.9,0,65.6,0,23.4,0,62.6,0,23.3,0,18,0
2003/6/1,20:45,17.7,0,65.4,0,23.9,0,65.2,0,23.4,0,62.1,0,23.3,0,18.1,0
2003/6/1,21:00,17.7,0,64.8,0,23.8,0,64.8,0,23.3,0,62,0,23.3,0,18.2,0
2003/6/1,21:15,17.4,0,69.1,0,23.7,0,64.4,0,23.3,0,61.8,0,23.2,0,17.6,0
2003/6/1,21:30,17.1,0,72.7,0,23.6,0,64.2,0,23.3,0,61.5,0,23.2,0,17.8,0
2003/6/1,21:45,16.8,0,71.8,0,23.6,0,63.9,0,23.3,0,61.4,0,23.2,0,17.9,0
2003/6/1,22:00,17,0,69,0,23.5,0,63.9,0,23.2,0,61.2,0,23.1,0,18.1,0
2003/6/1,22:15,16.6,0,73.1,0,23.5,0,63.5,0,23.2,0,61,0,23.1,0,18.2,0
2003/6/1,22:30,16,0,74.8,0,23.4,0,63.2,0,23.2,0,60.8,0,23,0,18.3,0
2003/6/1,22:45,15.9,0,73.8,0,23.4,0,62.9,0,23.1,0,60.6,0,23,0,18.4,0
2003/6/1,23:00,15.7,0,73.1,0,23.3,0,62.5,0,23.1,0,60.4,0,23,0,18.6,0
2003/6/1,23:15,15.5,0,73.9,0,23.2,0,62.4,0,23,0,60.2,0,22.9,0,17.6,0
2003/6/1,23:30,14.8,0,81.4,0,23.1,0,62.5,0,23,0,60.1,0,22.9,0,17.8,0
2003/6/1,23:45,14.3,0,85,0,23.1,0,62.4,0,23,0,59.8,0,22.8,0,18,0
2003/6/2,0:00,14,0,85.3,0,23,0,62.1,0,22.9,0,59.6,0,22.8,0,16.9,0
2003/6/2,0:15,14.2,0,79.6,0,22.9,0,62,0,22.9,0,59.4,0,22.7,0,17,0
2003/6/2,0:30,14.3,0,78.7,0,22.9,0,61.9,0,22.8,0,59.5,0,22.7,0,17.1,0
2003/6/2,0:45,14.5,0,76.1,0,22.8,0,61.5,0,22.8,0,59.1,0,22.6,0,17.2,0
2003/6/2,1:00,14.9,0,72.1,0,22.7,0,61.5,0,22.8,0,59.1,0,22.6,0,17.3,0
2003/6/2,1:15,14.7,0,73.3,0,22.6,0,61.1,0,22.8,0,58.7,0,22.5,0,17.4,0
2003/6/2,1:30,14.6,0,75.2,0,22.5,0,61.6,0,22.7,0,58.5,0,22.5,0,17.6,0
2003/6/2,1:45,14.4,0,77.1,0,22.3,0,61.7,0,22.7,0,58.4,0,22.4,0,17.7,0
2003/6/2,2:00,13.9,0,82.9,0,22.2,0,61.8,0,22.6,0,58.3,0,22.4,0,17.8,0
2003/6/2,2:15,13.5,0,85.6,0,22.1,0,61.8,0,22.6,0,58.2,0,22.3,0,17.9,0
2003/6/2,2:30,13.1,0,90.1,0,22.1,0,61.7,0,22.5,0,58.2,0,22.3,0,18,0
2003/6/2,2:45,13,0,90.5,0,22,0,61.7,0,22.5,0,58.2,0,22.2,0,18.1,0
2003/6/2,3:00,12.5,0,94.3,0,21.8,0,61.7,0,22.4,0,58.1,0,22.2,0,18.2,0
2003/6/2,3:15,12.1,0,94.6,0,21.7,0,61.7,0,22.4,0,58,0,22.1,0,18.3,0
2003/6/2,3:30,11.8,0,95.3,0,21.7,0,61.6,0,22.3,0,57.9,0,22,0,18.3,0
2003/6/2,3:45,11.3,0,96.9,0,21.6,0,61.6,0,22.3,0,57.8,0,22,0,18.4,0
2003/6/2,4:00,11.3,0,97.2,0,21.5,0,61.5,0,22.2,0,57.5,0,21.9,0,18.5,0
2003/6/2,4:15,11.1,0,97.3,0,21.4,0,61.4,0,22.2,0,57.6,0,21.9,0,18.6,0
2003/6/2,4:30,11.1,0,97.2,0,21.4,0,61.3,0,22.1,0,57.7,0,21.8,0,18.7,0
2003/6/2,4:45,11,0,97.2,0,21.3,0,61.2,0,22.1,0,57.7,0,21.7,0,18.7,0
2003/6/2,5:00,11.2,0,96.7,0,21.3,0,61.1,0,22,0,57.6,0,21.7,0,18.8,0
2003/6/2,5:15,11.1,0,97.4,0,21.3,0,61,0,22,0,57.6,0,21.7,0,18.9,0
2003/6/2,5:30,11.5,0,97.7,0,21.3,0,60.8,0,22,0,57.5,0,21.7,0,18.9,0
2003/6/2,5:45,12.2,0,94.8,0,21.6,0,60.2,0,22,0,57.5,0,21.7,0,17.7,0
2003/6/2,6:00,12.6,0,96.2,0,21.6,0,60,0,22,0,57.4,0,21.7,0,17.9,0
2003/6/2,6:15,13.3,0,95,0,21.8,0,61.5,0,22,0,57.4,0,21.7,0,18,0
2003/6/2,6:30,14.4,0,88,0,21.7,0,61.5,0,22,0,57.5,0,21.7,0,18,0
2003/6/2,6:45,14.9,0,72.1,0,21.8,0,62,0,22,0,57.5,0,21.8,0,18.1,0
2003/6/2,7:00,16.2,0,67,0,22,0,65.7,0,22.1,0,58.3,0,21.9,0,18.2,0
2003/6/2,7:15,16.8,0,60.9,0,22.2,0,62.9,0,22.1,0,59,0,22,0,18.2,0
2003/6/2,7:30,17.4,0,57.4,0,22.2,0,62.5,0,22.1,0,58.6,0,22.1,0,17.4,0
2003/6/2,7:45,18.1,0,53,0,22.3,0,62,0,22.2,0,58.4,0,22.2,0,17.6,0
2003/6/2,8:00,18.5,0,49.8,0,22.5,0,60.7,0,22.2,0,58.2,0,22.2,0,17.7,0
2003/6/2,8:15,18.8,0,48.3,0,22.6,0,59.8,0,22.3,0,58.1,0,22.3,0,17.8,0
2003/6/2,8:30,19.2,0,47.4,0,22.7,0,58.9,0,22.3,0,57.6,0,22.4,0,17.9,0
2003/6/2,8:45,19.7,0,46.5,0,22.7,0,59,0,22.4,0,56.9,0,22.5,0,17.1,0
2003/6/2,9:00,20,0,44.2,0,22.8,0,58.2,0,22.4,0,57.3,0,22.5,0,17.4,0
2003/6/2,9:15,20.5,0,43.3,0,22.9,0,57.2,0,22.4,0,55.7,0,22.6,0,17.5,0
2003/6/2,9:30,20.8,0,42.1,0,22.9,0,56.7,0,22.5,0,55.7,0,22.7,0,17.6,0
2003/6/2,9:45,21.1,0,42.9,0,22.9,0,56.4,0,22.6,0,55.6,0,22.8,0,17.7,0
2003/6/2,10:00,21.3,0,41.3,0,23,0,56,0,22.6,0,55.1,0,22.8,0,17.8,0
2003/6/2,10:15,21.6,0,40.7,0,23,0,55.8,0,22.7,0,55,0,22.9,0,17.9,0
2003/6/2,10:30,21.9,0,40.5,0,23.1,0,55.7,0,22.8,0,54.9,0,22.9,0,18,0
2003/6/2,10:45,21.6,0,41.8,0,23.1,0,55.6,0,22.8,0,54.6,0,23,0,18.1,0
2003/6/2,11:00,22.1,0,37.5,0,23.2,0,55.3,0,22.9,0,54.4,0,23.1,0,18.2,0
2003/6/2,11:15,22.4,0,36.7,0,23.2,0,55.1,0,23,0,54.1,0,23.2,0,18.3,0
2003/6/2,11:30,22.6,0,35.6,0,23.2,0,54.6,0,23,0,54.3,0,23.2,0,18.3,0
2003/6/2,11:45,22.8,0,36.3,0,23.3,0,53.9,0,23.1,0,54.6,0,23.3,0,18.4,0
2003/6/2,12:00,23.1,0,35.6,0,23.3,0,53.7,0,23.2,0,54.5,0,23.4,0,18.5,0
2003/6/2,12:15,23.4,0,35.9,0,23.3,0,53.5,0,23.2,0,54.4,0,23.4,0,18.6,0
2003/6/2,12:30,23.3,0,35.4,0,23.4,0,53.3,0,23.3,0,54.3,0,23.5,0,18.7,0
2003/6/2,12:45,23.3,0,32.5,0,23.4,0,54,0,23.4,0,54.1,0,23.6,0,18.8,0
2003/6/2,13:00,23.8,0,30.1,0,23.4,0,54.2,0,23.4,0,53.7,0,23.6,0,18.8,0
2003/6/2,13:15,24,0,31,0,23.5,0,54.2,0,23.4,0,53.4,0,23.7,0,18.9,0
2003/6/2,13:30,24.2,0,30.7,0,23.5,0,54,0,23.5,0,53,0,23.8,0,19,0
2003/6/2,13:45,24.2,0,29.8,0,23.6,0,53.5,0,23.5,0,52.7,0,23.8,0,19.1,0
2003/6/2,14:00,24.4,0,30.4,0,23.7,0,53.5,0,23.6,0,52.4,0,23.9,0,19.1,0
2003/6/2,14:15,24.7,0,27.2,0,23.9,0,53.3,0,23.6,0,52.5,0,24,0,19.2,0
2003/6/2,14:30,24.4,0,26.9,0,24,0,53,0,23.7,0,52,0,24.1,0,19.3,0
2003/6/2,14:45,24.6,0,29,0,24.1,0,52.9,0,23.8,0,52.6,0,24.2,0,19.3,0
2003/6/2,15:00,24.9,0,29,0,24.2,0,52.8,0,23.9,0,52.7,0,24.4,0,19.4,0
2003/6/2,15:15,24.7,0,28.9,0,24.3,0,52.4,0,24,0,52.6,0,24.5,0,19.5,0
2003/6/2,15:30,24.2,0,28.2,0,24.4,0,51.5,0,24.1,0,52.4,0,24.7,0,19.5,0
2003/6/2,15:45,24.2,0,29.4,0,24.5,0,51.9,0,24.2,0,52,0,24.9,0,19.6,0
2003/6/2,16:00,24.3,0,29.1,0,24.5,0,51.8,0,24.2,0,52.1,0,25.1,0,19.6,0
2003/6/2,16:15,24.1,0,28.4,0,24.5,0,51.8,0,24.3,0,52.1,0,25.2,0,19.7,0
2003/6/2,16:30,23.9,0,29.3,0,24.4,0,51.3,0,24.4,0,52,0,25.4,0,19.8,0
2003/6/2,16:45,23.6,0,29.4,0,24.4,0,51,0,24.4,0,51.8,0,25.5,0,19.8,0
2003/6/2,17:00,23.3,0,29.9,0,24.4,0,51,0,24.5,0,51.9,0,25.6,0,19.9,0
2003/6/2,17:15,23.1,0,31.5,0,24.3,0,50.7,0,24.5,0,52,0,25.7,0,19.9,0
2003/6/2,17:30,22.5,0,31.4,0,24.3,0,49,0,24.5,0,52.4,0,25.7,0,20,0
2003/6/2,17:45,22.1,0,32.3,0,24.3,0,49.3,0,24.5,0,52.4,0,25.7,0,20.1,0
2003/6/2,18:00,21.7,0,33.6,0,24.3,0,49.5,0,24.5,0,52.4,0,25.7,0,20.1,0
2003/6/2,18:15,21.4,0,32.7,0,24.2,0,49.7,0,24.5,0,52.1,0,25.7,0,20.2,0
2003/6/2,18:30,21.2,0,33.8,0,24.2,0,49.7,0,24.4,0,52.3,0,25.6,0,20.2,0
2003/6/2,18:45,20.8,0,33.7,0,24.2,0,48.6,0,24.4,0,52,0,25.5,0,20.3,0
2003/6/2,19:00,20.4,0,35,0,24.2,0,49,0,24.3,0,51.8,0,25.4,0,20.4,0
2003/6/2,19:15,20.1,0,35.5,0,24.1,0,48.9,0,24.3,0,51.7,0,25.2,0,20.4,0
2003/6/2,19:30,19.9,0,36.4,0,24.1,0,48.6,0,24.2,0,51.1,0,25.1,0,20.5,0
2003/6/2,19:45,19.6,0,37.2,0,24.1,0,47.8,0,24.2,0,50.8,0,24.9,0,20.5,0
2003/6/2,20:00,19,0,45.2,0,24,0,47.2,0,24.1,0,50.8,0,24.8,0,20.6,0
2003/6/2,20:15,17.9,0,50.2,0,24.1,0,47.8,0,24.1,0,50.9,0,24.7,0,20.6,0
2003/6/2,20:30,16.5,0,58.5,0,24,0,48.9,0,24,0,50.8,0,24.7,0,20.7,0
2003/6/2,20:45,16.2,0,57.7,0,23.9,0,49.3,0,24,0,50.7,0,24.6,0,20.7,0
2003/6/2,21:00,15.4,0,60.5,0,24.1,0,49.3,0,23.9,0,50.5,0,24.5,0,20.8,0
2003/6/2,21:15,14.9,0,62.6,0,24.1,0,49.3,0,23.9,0,50.2,0,24.4,0,20.8,0
2003/6/2,21:30,14.8,0,64.1,0,24,0,49.8,0,23.9,0,50.4,0,24.4,0,16.4,0
2003/6/2,21:45,14.6,0,64.8,0,23.9,0,50.2,0,23.8,0,50.6,0,24.3,0,16.2,0
2003/6/2,22:00,14.3,0,67.9,0,23.8,0,50.3,0,23.8,0,50.6,0,24.2,0,16.2,0
2003/6/2,22:15,14,0,71.5,0,23.8,0,50.4,0,23.7,0,50.9,0,24.2,0,16.3,0
2003/6/2,22:30,13.9,0,72.5,0,23.7,0,51.3,0,23.7,0,51.2,0,24.1,0,16.5,0
2003/6/2,22:45,13.2,0,73,0,23.7,0,50.9,0,23.6,0,50.9,0,24,0,16.6,0
2003/6/2,23:00,13,0,74.3,0,23.6,0,51.5,0,23.6,0,51.1,0,23.9,0,16.7,0
2003/6/2,23:15,12.9,0,77.9,0,23.5,0,51.3,0,23.5,0,51.3,0,23.9,0,16.3,0
2003/6/2,23:30,12.6,0,79.2,0,23.4,0,51.2,0,23.5,0,51.2,0,23.8,0,16.5,0
2003/6/2,23:45,11.9,0,83.2,0,23.3,0,51.4,0,23.4,0,51,0,23.7,0,16.5,0
2003/6/3,0:00,11.6,0,84.9,0,23.2,0,51.6,0,23.4,0,51.3,0,23.7,0,16.6,0
2003/6/3,0:15,11,0,88.7,0,23.1,0,51.7,0,23.3,0,51,0,23.6,0,16.7,0
2003/6/3,0:30,10.9,0,89,0,23,0,51.9,0,23.3,0,50.9,0,23.5,0,16.8,0
2003/6/3,0:45,10.9,0,88.6,0,22.9,0,52,0,23.2,0,51,0,23.5,0,16.9,0
2003/6/3,1:00,10.7,0,90.6,0,22.8,0,52.1,0,23.1,0,50.9,0,23.4,0,17,0
2003/6/3,1:15,10.8,0,91,0,22.7,0,52.4,0,23.1,0,51.1,0,23.3,0,17.1,0
2003/6/3,1:30,10.5,0,93.4,0,22.6,0,52.4,0,23,0,51.1,0,23.2,0,17.2,0
2003/6/3,1:45,10.1,0,94.1,0,22.6,0,52.5,0,23,0,50.9,0,23.2,0,17.3,0
2003/6/3,2:00,10.2,0,94.3,0,22.5,0,52.5,0,22.9,0,51,0,23.1,0,17.2,0
2003/6/3,2:15,10.1,0,93.5,0,22.4,0,55.6,0,22.8,0,51.6,0,23,0,17.3,0
2003/6/3,2:30,9.8,0,94.2,0,22.4,0,53.5,0,22.8,0,52.3,0,23,0,17.4,0
2003/6/3,2:45,9.9,0,92.6,0,22.3,0,53.1,0,22.7,0,52,0,22.9,0,17.4,0
2003/6/3,3:00,9.8,0,92.3,0,22.2,0,53.1,0,22.7,0,51.9,0,22.8,0,17.5,0
2003/6/3,3:15,9.8,0,92.2,0,22.1,0,52.9,0,22.6,0,51.9,0,22.8,0,17.6,0
2003/6/3,3:30,9.7,0,93.1,0,22,0,53,0,22.6,0,51.7,0,22.7,0,17.7,0
2003/6/3,3:45,9.5,0,94.1,0,21.9,0,53,0,22.5,0,51.5,0,22.6,0,17.7,0
2003/6/3,4:00,9.6,0,94.7,0,21.8,0,53.2,0,22.4,0,51.6,0,22.5,0,17.8,0
2003/6/3,4:15,9.2,0,94.6,0,21.7,0,53.5,0,22.4,0,51.8,0,22.5,0,17.9,0
2003/6/3,4:30,9.1,0,95.3,0,21.6,0,53.6,0,22.3,0,51.9,0,22.4,0,17.9,0
2003/6/3,4:45,9.4,0,96.6,0,21.5,0,53.5,0,22.3,0,51.9,0,22.3,0,18,0
2003/6/3,5:00,9.2,0,96,0,21.5,0,53.6,0,22.2,0,51.9,0,22.3,0,18.1,0
2003/6/3,5:15,9.4,0,96,0,21.5,0,53.6,0,22.2,0,52,0,22.2,0,18.1,0
2003/6/3,5:30,10,0,95.3,0,21.5,0,53.5,0,22.2,0,52.1,0,22.2,0,18.2,0
2003/6/3,5:45,10.7,0,94.5,0,21.5,0,53.5,0,22.1,0,52.2,0,22.2,0,18.3,0
2003/6/3,6:00,11.1,0,94.6,0,21.5,0,53.4,0,22.1,0,52.2,0,22.2,0,18.3,0
2003/6/3,6:15,11.7,0,92.1,0,21.6,0,54.8,0,22.1,0,52.3,0,22.2,0,18.4,0
2003/6/3,6:30,12.2,0,91.8,0,21.7,0,57,0,22.1,0,52.5,0,22.2,0,17.1,0
2003/6/3,6:45,13,0,89.5,0,21.8,0,56.3,0,22.2,0,53,0,22.2,0,16.8,0
2003/6/3,7:00,13.3,0,85,0,22,0,57,0,22.2,0,52.9,0,22.2,0,17,0
2003/6/3,7:15,14.1,0,76.8,0,22.1,0,57,0,22.3,0,53.2,0,22.3,0,17.1,0
2003/6/3,7:30,15.1,0,69,0,22.2,0,56.3,0,22.3,0,53.2,0,22.3,0,17.2,0
2003/6/3,7:45,15.5,0,66.6,0,22.3,0,55.9,0,22.3,0,53.2,0,22.4,0,17.3,0
2003/6/3,8:00,16.2,0,62.7,0,22.4,0,55.3,0,22.3,0,53.1,0,22.5,0,17.2,0
2003/6/3,8:15,17,0,55.7,0,22.5,0,54.2,0,22.4,0,53.2,0,22.5,0,17.3,0
2003/6/3,8:30,17.9,0,55.7,0,22.6,0,54.2,0,22.4,0,53,0,22.6,0,16.6,0
2003/6/3,8:45,18.6,0,50.2,0,22.7,0,55,0,22.5,0,53,0,22.6,0,16.7,0
2003/6/3,9:00,19.3,0,50.1,0,22.8,0,53.3,0,22.6,0,53,0,22.7,0,16.8,0
2003/6/3,9:15,19.3,0,45.4,0,22.8,0,52.7,0,22.6,0,53,0,22.8,0,16.9,0
2003/6/3,9:30,20.2,0,38.6,0,23,0,52.2,0,22.7,0,52.5,0,22.9,0,17,0
2003/6/3,9:45,21,0,37.2,0,23,0,51.8,0,22.7,0,51.7,0,23,0,17.1,0
2003/6/3,10:00,21.3,0,33.8,0,23,0,51.2,0,22.8,0,51.7,0,23.1,0,17.3,0
2003/6/3,10:15,21.9,0,31.2,0,23.1,0,51.1,0,22.9,0,51.3,0,23.1,0,17.4,0
2003/6/3,10:30,22.3,0,31.5,0,23.2,0,50.7,0,22.9,0,50.6,0,23.2,0,17.5,0
2003/6/3,10:45,22.4,0,32.5,0,23.2,0,50.6,0,23,0,50.2,0,23.3,0,17.6,0
2003/6/3,11:00,22.9,0,29.8,0,23.3,0,50.4,0,23.1,0,49.8,0,23.3,0,17.7,0
2003/6/3,11:15,23,0,31.1,0,23.4,0,50.2,0,23.2,0,49.3,0,23.4,0,17.8,0
2003/6/3,11:30,23.4,0,29.3,0,23.4,0,49.6,0,23.2,0,49.3,0,23.5,0,17.9,0
2003/6/3,11:45,23.4,0,29.8,0,23.4,0,48.7,0,23.3,0,49.5,0,23.6,0,18,0
2003/6/3,12:00,23.9,0,29.2,0,23.5,0,48.4,0,23.4,0,49.4,0,23.7,0,18.1,0
2003/6/3,12:15,24.3,0,27.7,0,23.5,0,48.1,0,23.5,0,49.5,0,23.7,0,18.2,0
2003/6/3,12:30,24.1,0,29.7,0,23.6,0,48.1,0,23.5,0,49.7,0,23.8,0,18.3,0
2003/6/3,12:45,24,0,29.9,0,23.6,0,48.8,0,23.6,0,49.6,0,23.9,0,18.4,0
2003/6/3,13:00,24.8,0,27.9,0,23.7,0,49,0,23.6,0,49.4,0,24,0,18.5,0
2003/6/3,13:15,24.8,0,25.6,0,23.8,0,49,0,23.7,0,49.3,0,24,0,18.6,0
2003/6/3,13:30,24.9,0,27.3,0,23.9,0,49,0,23.7,0,49.2,0,24.1,0,18.7,0
2003/6/3,13:45,25.4,0,26.4,0,23.9,0,49,0,23.8,0,48.6,0,24.2,0,18.8,0
2003/6/3,14:00,25.6,0,25.5,0,24.1,0,48.9,0,23.9,0,47.7,0,24.2,0,18.9,0
2003/6/3,14:15,26,0,24.8,0,24.2,0,48.9,0,23.9,0,47.6,0,24.3,0,18.9,0
2003/6/3,14:30,26,0,23.5,0,24.4,0,48.9,0,24,0,47.8,0,24.4,0,19,0
2003/6/3,14:45,26.3,0,24.5,0,24.5,0,48.8,0,24.1,0,48.2,0,24.6,0,19.1,0
2003/6/3,15:00,27,0,24.2,0,24.6,0,48.8,0,24.2,0,48.3,0,24.7,0,19.2,0
2003/6/3,15:15,26.2,0,24.2,0,24.7,0,48.4,0,24.3,0,48.4,0,24.9,0,19.2,0
2003/6/3,15:30,26.2,0,24.8,0,24.8,0,48.5,0,24.4,0,48.3,0,25.1,0,19.3,0
2003/6/3,15:45,26.3,0,25.4,0,24.9,0,48.3,0,24.5,0,48.4,0,25.3,0,19.4,0
2003/6/3,16:00,26.8,0,24.2,0,25,0,48.4,0,24.6,0,48.5,0,25.5,0,19.5,0
2003/6/3,16:15,26.5,0,27,0,24.8,0,48.6,0,24.7,0,48.6,0,25.7,0,19.5,0
2003/6/3,16:30,25.4,0,42.5,0,24.9,0,48.6,0,24.8,0,48.5,0,25.9,0,19.6,0
2003/6/3,16:45,24.7,0,44.2,0,24.9,0,48.6,0,24.9,0,48,0,26.1,0,19.7,0
2003/6/3,17:00,23.6,0,50.9,0,24.9,0,48.5,0,24.9,0,48.1,0,26.2,0,19.7,0
2003/6/3,17:15,23.1,0,52.4,0,24.8,0,48.5,0,25,0,48,0,26.4,0,19.8,0
2003/6/3,17:30,22.7,0,54.3,0,24.8,0,48.5,0,25.1,0,47.4,0,26.5,0,19.9,0
2003/6/3,17:45,21.6,0,60.9,0,24.8,0,48.4,0,25.1,0,47.6,0,26.5,0,19.9,0
2003/6/3,18:00,21.5,0,62.1,0,24.8,0,48.4,0,25.1,0,48.4,0,26.6,0,20,0
2003/6/3,18:15,21.2,0,63.2,0,24.8,0,48.7,0,25.1,0,48.8,0,26.6,0,20.1,0
2003/6/3,18:30,20.5,0,67.5,0,24.8,0,49.1,0,25,0,49.2,0,26.5,0,20.1,0
2003/6/3,18:45,19.9,0,70.1,0,24.8,0,49.3,0,25,0,49.3,0,26.5,0,20.2,0
2003/6/3,19:00,19,0,74.7,0,24.7,0,49.8,0,25,0,49.7,0,26.4,0,20.3,0
2003/6/3,19:15,18.3,0,77.9,0,24.7,0,50.2,0,24.9,0,50,0,26.2,0,20.3,0
2003/6/3,19:30,18.1,0,79.5,0,24.8,0,50.5,0,24.9,0,50.2,0,26.1,0,20.4,0
2003/6/3,19:45,17.6,0,82.3,0,24.7,0,50.9,0,24.9,0,50.4,0,26,0,20.5,0
2003/6/3,20:00,16.9,0,85,0,24.8,0,51.2,0,24.8,0,50.5,0,25.9,0,18.4,0
2003/6/3,20:15,16.4,0,86.7,0,24.8,0,52.6,0,24.8,0,51.3,0,25.9,0,18.5,0
2003/6/3,20:30,16.2,0,87.6,0,24.7,0,52.9,0,24.8,0,51.5,0,25.8,0,18.7,0
2003/6/3,20:45,15.6,0,90.6,0,24.7,0,52.6,0,24.7,0,51.2,0,25.7,0,18.8,0
2003/6/3,21:00,16.1,0,87.7,0,24.6,0,52.6,0,24.7,0,51.1,0,25.6,0,18.9,0
2003/6/3,21:15,15.6,0,90.2,0,24.5,0,52.5,0,24.7,0,51,0,25.5,0,18.9,0
2003/6/3,21:30,15.6,0,87.9,0,24.5,0,52.4,0,24.6,0,51,0,25.4,0,19,0
2003/6/3,21:45,15.4,0,89.2,0,24.4,0,52.4,0,24.6,0,50.9,0,25.4,0,19.1,0
2003/6/3,22:00,14.9,0,90.1,0,24.4,0,52.2,0,24.5,0,50.9,0,25.3,0,19.2,0
2003/6/3,22:15,14.4,0,91.4,0,24.3,0,51.8,0,24.5,0,50.9,0,25.2,0,17.7,0
2003/6/3,22:30,14,0,91.2,0,24.2,0,51.3,0,24.4,0,50.8,0,25.1,0,17.9,0
2003/6/3,22:45,13.9,0,92.2,0,24.1,0,51.5,0,24.4,0,50.8,0,25,0,18,0
2003/6/3,23:00,13.7,0,93.5,0,24.1,0,51.4,0,24.3,0,50.7,0,24.9,0,18.1,0
2003/6/3,23:15,13.9,0,94.5,0,23.9,0,51.2,0,24.3,0,50.5,0,24.9,0,16.8,0
2003/6/3,23:30,13.9,0,93.9,0,24,0,50.3,0,24.2,0,50.3,0,24.8,0,16.9,0
2003/6/3,23:45,13.8,0,93.8,0,23.9,0,50.5,0,24.2,0,50.2,0,24.7,0,17.1,0
2003/6/4,0:00,13.9,0,94.3,0,23.8,0,50.5,0,24.1,0,50.2,0,24.7,0,17.2,0
2003/6/4,0:15,13.7,0,94.4,0,23.7,0,49.9,0,24.1,0,50.1,0,24.6,0,17.3,0
2003/6/4,0:30,13.2,0,95.5,0,23.6,0,50.2,0,24,0,49.9,0,24.5,0,17.5,0
2003/6/4,0:45,13.1,0,97.9,0,23.5,0,50.2,0,24,0,49.8,0,24.5,0,17.7,0
2003/6/4,1:00,12.9,0,96.8,0,23.4,0,50.2,0,23.9,0,49.8,0,24.4,0,17.5,0
2003/6/4,1:15,12.7,0,97,0,23.3,0,50.1,0,23.9,0,49.9,0,24.3,0,17.6,0
2003/6/4,1:30,12.3,0,97.1,0,23.2,0,50.1,0,23.8,0,50,0,24.3,0,17.7,0
2003/6/4,1:45,12.1,0,97.2,0,23.2,0,49.9,0,23.8,0,50.1,0,24.2,0,17.9,0
2003/6/4,2:00,11.7,0,97.3,0,23,0,50,0,23.7,0,49.9,0,24.1,0,18,0
2003/6/4,2:15,11.4,0,96.8,0,22.9,0,50.3,0,23.7,0,50.2,0,24.1,0,18.1,0
2003/6/4,2:30,11.1,0,96.7,0,22.8,0,50.3,0,23.6,0,49.8,0,24,0,18.2,0
2003/6/4,2:45,10.9,0,96.1,0,22.7,0,50.4,0,23.6,0,49.7,0,23.9,0,18.3,0
2003/6/4,3:00,11,0,96.6,0,22.6,0,50.5,0,23.5,0,49.6,0,23.8,0,18.4,0
2003/6/4,3:15,10.7,0,96.5,0,22.5,0,50.2,0,23.5,0,49.7,0,23.7,0,18.5,0
2003/6/4,3:30,10.3,0,96.8,0,22.5,0,50.1,0,23.4,0,49.8,0,23.7,0,18.6,0
2003/6/4,3:45,10.1,0,97.1,0,22.4,0,50.6,0,23.4,0,50,0,23.6,0,18.7,0
2003/6/4,4:00,10.3,0,96.9,0,22.3,0,50.5,0,23.3,0,49.9,0,23.5,0,18.8,0
2003/6/4,4:15,10.5,0,97.6,0,22.2,0,50.5,0,23.3,0,50.1,0,23.4,0,18.9,0
2003/6/4,4:30,10.4,0,97.2,0,22,0,50.8,0,23.2,0,49.9,0,23.3,0,19,0
2003/6/4,4:45,10.6,0,97,0,22,0,50.8,0,23.1,0,49.9,0,23.3,0,19,0
2003/6/4,5:00,11.2,0,94.7,0,22,0,50.9,0,23.1,0,50.2,0,23.2,0,19.1,0
2003/6/4,5:15,11.6,0,94.4,0,21.9,0,51,0,23.1,0,50,0,23.2,0,19.2,0
2003/6/4,5:30,11.8,0,96.3,0,21.9,0,50.8,0,23,0,50.1,0,23.1,0,19.3,0
2003/6/4,5:45,12.4,0,93.8,0,22,0,50.8,0,23,0,50.2,0,23.1,0,19.3,0
2003/6/4,6:00,12.8,0,94.4,0,22,0,50.8,0,23,0,50.3,0,23.1,0,19.4,0
2003/6/4,6:15,13.3,0,89.2,0,22.2,0,52.6,0,23,0,50.3,0,23.1,0,19.5,0
2003/6/4,6:30,14,0,86,0,22.4,0,55.5,0,23,0,50.5,0,23.2,0,19.5,0
2003/6/4,6:45,14.6,0,83.2,0,22.5,0,55.6,0,23,0,50.8,0,23.2,0,19.6,0
2003/6/4,7:00,14.9,0,80,0,22.7,0,56.1,0,23.1,0,51.1,0,23.2,0,19.6,0
2003/6/4,7:15,15.6,0,78.3,0,22.9,0,55.3,0,23.1,0,52,0,23.3,0,19.7,0
2003/6/4,7:30,16.8,0,73.5,0,23,0,55,0,23.1,0,51.6,0,23.3,0,19.7,0
2003/6/4,7:45,17.4,0,74.1,0,23.2,0,54.7,0,23.2,0,51.6,0,23.4,0,16.7,0
2003/6/4,8:00,18.1,0,74.3,0,23.1,0,54.1,0,23.2,0,51.6,0,23.4,0,16.9,0
2003/6/4,8:15,18.4,0,70.2,0,23.3,0,54.4,0,23.2,0,51.5,0,23.4,0,17,0
2003/6/4,8:30,19,0,72.1,0,23.4,0,54.9,0,23.2,0,51.6,0,23.4,0,17.1,0
2003/6/4,8:45,19.6,0,67.4,0,23.5,0,55.2,0,23.3,0,51.8,0,23.4,0,16.1,0
2003/6/4,9:00,19.8,0,69.1,0,23.6,0,55.1,0,23.4,0,52.1,0,23.5,0,16.5,0
2003/6/4,9:15,20.7,0,69.9,0,23.6,0,55.3,0,23.4,0,52.8,0,23.6,0,16.6,0
2003/6/4,9:30,21.2,0,67.7,0,23.7,0,55.6,0,23.5,0,53.3,0,23.6,0,16.7,0
2003/6/4,9:45,21.7,0,65.1,0,23.8,0,55.8,0,23.6,0,53.8,0,23.6,0,16.9,0
2003/6/4,10:00,22.2,0,62.6,0,23.8,0,56.1,0,23.7,0,53.8,0,23.7,0,17,0
2003/6/4,10:15,22.1,0,61.1,0,23.9,0,56.8,0,23.8,0,54.1,0,23.8,0,17.1,0
2003/6/4,10:30,22.2,0,59.4,0,24,0,56.5,0,23.9,0,54.5,0,23.9,0,17.2,0
2003/6/4,10:45,22.6,0,59.8,0,24,0,56.4,0,24,0,54.3,0,24,0,17.4,0
2003/6/4,11:00,22.7,0,60.5,0,24.1,0,56.9,0,24.1,0,53.7,0,24.2,0,17.5,0
2003/6/4,11:15,23,0,55.7,0,24.1,0,56.9,0,24.2,0,53.5,0,24.3,0,17.6,0
2003/6/4,11:30,22.9,0,56.2,0,24.2,0,56.9,0,24.3,0,53.4,0,24.4,0,17.7,0
2003/6/4,11:45,23.1,0,53.4,0,24.2,0,56.9,0,24.3,0,53.4,0,24.6,0,17.8,0
2003/6/4,12:00,22.6,0,55.1,0,24.3,0,56.6,0,24.4,0,53.5,0,24.7,0,17.9,0
2003/6/4,12:15,22.2,0,53.8,0,24.3,0,56.4,0,24.5,0,53.4,0,24.8,0,18,0
2003/6/4,12:30,22.3,0,54.6,0,24.4,0,56.2,0,24.6,0,53.2,0,25,0,18.1,0
2003/6/4,12:45,23,0,57.5,0,24.4,0,55.9,0,24.6,0,53,0,25.1,0,18.2,0
2003/6/4,13:00,22.6,0,57.7,0,24.5,0,55.6,0,24.7,0,52.8,0,25.2,0,18.3,0
2003/6/4,13:15,22.5,0,58.7,0,24.5,0,55.4,0,24.7,0,52.7,0,25.4,0,18.4,0